QPF
0.00 0.00 0.00 0.00 0.00 0.00 0.00 0.00 0.00 0.00 0.01 0.01 0.01 0.01 0.01 0.00 0.00 0.00 0.00 0.00 0.00 0.00 0.00 0.00 0.00 0.00 0.00 0.00 0.00 0.00 0.00 0.00 0.00 0.00 0.00 0.00 0.00 0.00 0.00 0.00 0.00 0.00 0.00
0.00 0.00 0.00 0.00 0.00 0.00 0.00 0.00 0.00 0.00 0.04 0.02 0.02 0.05 0.02 0.00 0.00 0.00 0.00 0.00 0.00 0.00 0.00 0.00 0.00 0.00 0.00 0.00 0.00 0.00 0.00 0.00 0.00 0.00 0.00 0.00 0.00 0.00 0.00 0.00 0.00 0.00 0.00
0.00 0.00 0.00 0.00 0.00 0.00 0.00 0.00 0.00 0.00 0.03 0.03 0.06 0.07 0.05 0.00 0.00 0.00 0.00 0.00 0.00 0.00 0.00 0.00 0.00 0.00 0.00 0.00 0.00 0.00 0.00 0.00 0.00 0.00 0.00 0.00 0.00 0.00 0.00 0.00 0.00 0.00 0.00
0.00 0.00 0.00 0.00 0.00 0.00 0.00 0.00 0.00 0.01 0.03 0.03 0.02 0.08 0.05 0.00 0.00 0.00 0.00 0.00 0.00 0.00 0.00 0.00 0.00 0.00 0.00 0.00 0.00 0.00 0.00 0.00 0.00 0.00 0.01 0.00 0.00 0.00 0.00 0.00 0.00 0.00 0.00
0.00 0.00 0.00 0.00 0.00 0.00 0.00 0.00 0.01 0.02 0.03 0.01 0.01 0.01 0.00 0.00 0.00 0.00 0.00 0.00 0.00 0.00 0.00 0.00 0.00 0.00 0.00 0.00 0.00 0.00 0.00 0.00 0.00 0.02 0.01 0.00 0.00 0.00 0.00 0.00 0.00 0.00 0.00
0.00 0.00 0.00 0.00 0.00 0.00 0.00 0.00 0.01 0.01 0.01 0.00 0.00 0.00 0.00 0.01 0.01 0.00 0.00 0.00 0.00 0.00 0.00 0.00 0.00 0.00 0.00 0.00 0.00 0.00 0.00 0.00 0.02 0.03 0.01 0.00 0.00 0.00 0.00 0.00 0.00 0.00 0.00
0.00 0.00 0.00 0.00 0.00 0.00 0.00 0.00 0.00 0.00 0.00 0.00 0.00 0.01 0.00 0.01 0.00 0.00 0.00 0.00 0.00 0.00 0.00 0.00 0.00 0.00 0.00 0.00 0.00 0.00 0.00 0.00 0.02 0.01 0.01 0.00 0.00 0.00 0.00 0.00 0.00 0.00 0.00
0.00 0.00 0.00 0.00 0.00 0.00 0.00 0.00 0.00 0.00 0.00 0.00 0.01 0.01 0.00 0.01 0.00 0.00 0.00 0.00 0.00 0.00 0.00 0.00 0.00 0.00 0.00 0.00 0.00 0.00 0.00 0.00 0.00 0.00 0.00 0.00 0.00 0.00 0.00 0.00 0.00 0.00 0.00
0.00 0.00 0.00 0.00 0.00 0.00 0.00 0.01 0.00 0.00 0.00 0.01 0.01 0.00 0.01 0.00 0.00 0.00 0.00 0.00 0.00 0.00 0.00 0.00 0.00 0.00 0.00 0.00 0.00 0.00 0.00 0.00 0.00 0.00 0.00 0.00 0.00 0.00 0.00 0.00 0.00 0.00 0.00
0.00 0.00 0.00 0.00 0.00 0.00 0.00 0.01 0.01 0.01 0.00 0.00 0.00 0.01 0.01 0.00 0.01 0.00 0.00 0.00 0.00 0.00 0.00 0.00 0.00 0.00 0.00 0.00 0.00 0.00 0.00 0.00 0.00 0.00 0.00 0.00 0.00 0.00 0.00 0.00 0.00 0.00 0.00
0.00 0.00 0.00 0.00 0.00 0.00 0.00 0.01 0.00 0.00 0.00 0.00 0.00 0.00 0.00 0.00 0.01 0.00 0.00 0.00 0.00 0.00 0.00 0.00 0.00 0.00 0.00 0.00 0.00 0.00 0.00 0.00 0.00 0.00 0.00 0.00 0.00 0.00 0.00 0.00 0.00 0.00 0.00
0.00 0.00 0.00 0.00 0.00 0.00 0.00 0.00 0.00 0.00 0.00 0.00 0.00 0.00 0.00 0.00 0.01 0.00 0.00 0.00 0.00 0.00 0.00 0.00 0.00 0.00 0.00 0.00 0.00 0.00 0.00 0.00 0.00 0.00 0.00 0.00 0.00 0.00 0.00 0.00 0.00 0.00 0.00
0.00 0.00 0.00 0.00 0.00 0.00 0.00 0.00 0.00 0.00 0.00 0.00 0.01 0.01 0.02 0.02 0.00 0.00 0.00 0.00 0.00 0.00 0.00 0.00 0.00 0.00 0.00 0.00 0.00 0.00 0.00 0.00 0.00 0.00 0.00 0.00 0.00 0.00 0.00 0.00 0.00 0.00 0.00
0.00 0.00 0.00 0.00 0.00 0.00 0.01 0.02 0.03 0.01 0.01 0.02 0.02 0.04 0.05 0.04 0.02 0.00 0.00 0.00 0.00 0.00 0.00 0.00 0.00 0.00 0.00 0.00 0.00 0.00 0.00 0.00 0.00 0.00 0.00 0.00 0.00 0.00 0.00 0.00 0.00 0.00 0.00
0.00 0.00 0.00 0.00 0.00 0.01 0.01 0.03 0.02 0.01 0.01 0.03 0.04 0.07 0.11 0.10 0.03 0.00 0.00 0.00 0.00 0.00 0.00 0.00 0.00 0.00 0.00 0.00 0.00 0.00 0.00 0.00 0.00 0.00 0.00 0.00 0.00 0.00 0.00 0.00 0.00 0.00 0.00
0.00 0.00 0.00 0.00 0.00 0.01 0.01 0.02 0.00 0.00 0.01 0.03 0.04 0.02 0.05 0.06 0.01 0.00 0.00 0.00 0.00 0.00 0.00 0.00 0.00 0.00 0.00 0.00 0.00 0.00 0.00 0.00 0.00 0.00 0.00 0.00 0.00 0.00 0.00 0.00 0.00 0.00 0.00
0.00 0.00 0.00 0.00 0.00 0.00 0.00 0.00 0.00 0.01 0.01 0.01 0.00 0.00 0.00 0.00 0.00 0.00 0.00 0.00 0.00 0.00 0.00 0.00 0.00 0.00 0.00 0.00 0.00 0.00 0.00 0.00 0.00 0.00 0.00 0.00 0.00 0.00 0.00 0.00 0.00 0.00 0.00
0.00 0.00 0.00 0.00 0.00 0.00 0.00 0.00 0.00 0.00 0.00 0.00 0.00 0.00 0.00 0.00 0.00 0.00 0.00 0.00 0.00 0.00 0.00 0.00 0.00 0.00 0.00 0.00 0.00 0.00 0.00 0.00 0.00 0.00 0.00 0.00 0.00 0.00 0.00 0.00 0.00 0.00 0.00
0.00 0.00 0.00 0.00 0.00 0.00 0.01 0.00 0.00 0.01 0.00 0.00 0.00 0.00 0.00 0.00 0.00 0.00 0.00 0.00 0.00 0.00 0.00 0.00 0.00 0.00 0.00 0.00 0.00 0.00 0.00 0.00 0.00 0.00 0.00 0.00 0.00 0.00 0.00 0.00 0.00 0.00 0.00
0.00 0.00 0.00 0.00 0.00 0.00 0.00 0.00 0.03 0.04 0.00 0.00 0.00 0.00 0.00 0.00 0.00 0.00 0.00 0.00 0.00 0.00 0.00 0.00 0.00 0.00 0.00 0.00 0.00 0.00 0.00 0.00 0.00 0.00 0.00 0.00 0.00 0.00 0.00 0.00 0.00 0.00 0.00
0.00 0.00 0.00 0.00 0.00 0.00 0.00 0.00 0.01 0.03 0.00 0.00 0.00 0.00 0.00 0.00 0.00 0.00 0.00 0.00 0.00 0.00 0.00 0.00 0.00 0.00 0.00 0.00 0.00 0.00 0.00 0.00 0.00 0.00 0.00 0.00 0.00 0.00 0.00 0.00 0.00 0.00 0.00
0.00 0.00 0.00 0.00 0.00 0.00 0.00 0.00 0.01 0.01 0.00 0.00 0.00 0.00 0.00 0.00 0.00 0.00 0.00 0.00 0.00 0.00 0.00 0.00 0.00 0.00 0.00 0.00 0.00 0.00 0.00 0.00 0.00 0.00 0.00 0.00 0.00 0.00 0.00 0.00 0.00 0.00 0.00
0.00 0.00 0.00 0.00 0.00 0.00 0.00 0.00 0.02 0.02 0.01 0.00 0.00 0.00 0.00 0.00 0.00 0.00 0.00 0.00 0.00 0.00 0.00 0.00 0.00 0.00 0.00 0.00 0.00 0.00 0.00 0.00 0.00 0.00 0.00 0.00 0.00 0.00 0.00 0.00 0.00 0.00 0.00
0.00 0.00 0.00 0.00 0.00 0.00 0.00 0.00 0.00 0.01 0.03 0.00 0.00 0.00 0.00 0.00 0.00 0.00 0.00 0.00 0.00 0.00 0.00 0.00 0.00 0.00 0.00 0.00 0.00 0.00 0.00 0.00 0.00 0.00 0.00 0.00 0.00 0.00 0.00 0.00 0.00 0.00 0.00
0.00 0.00 0.00 0.00 0.00 0.00 0.00 0.00 0.01 0.01 0.01 0.00 0.00 0.00 0.00 0.00 0.00 0.00 0.00 0.00 0.00 0.00 0.00 0.00 0.00 0.00 0.00 0.00 0.00 0.00 0.00 0.00 0.00 0.00 0.00 0.00 0.00 0.00 0.00 0.00 0.00 0.00 0.00
0.00 0.00 0.00 0.00 0.00 0.00 0.00 0.01 0.01 0.03 0.01 0.00 0.00 0.00 0.00 0.00 0.00 0.00 0.00 0.00 0.00 0.00 0.00 0.00 0.00 0.00 0.00 0.00 0.00 0.00 0.00 0.00 0.00 0.00 0.00 0.00 0.00 0.00 0.00 0.00 0.00 0.00 0.00
MSLP
1006.30 1007.03 1007.65 1008.17 1008.76 1009.38 1009.87 1009.97 1010.32 1010.64 1010.98 1011.28 1011.87 1012.74 1013.58 1013.99 1014.24 1014.68 1014.17 1014.81 1014.99 1015.10 1015.29 1015.27 1015.55 1015.78 1015.85 1015.92 1015.71 1015.41 1015.42 1015.10 1014.51 1013.78 1013.31 1012.53 1011.96 1011.24 1010.61 1010.23 1009.64 1009.16 1008.50
1005.16 1006.08 1006.79 1007.44 1008.01 1008.50 1008.96 1009.43 1009.80 1010.16 1010.45 1010.92 1011.91 1012.50 1013.32 1013.51 1013.82 1014.13 1014.22 1014.26 1014.41 1014.71 1015.04 1015.20 1015.40 1015.45 1015.65 1015.67 1015.52 1015.52 1015.25 1014.77 1014.58 1013.88 1013.20 1012.42 1011.80 1011.23 1010.48 1009.95 1009.20 1008.18 1007.48
1004.23 1005.15 1005.98 1006.63 1007.23 1007.68 1008.20 1008.78 1009.29 1009.62 1010.04 1010.71 1011.58 1012.24 1012.76 1013.56 1013.82 1013.50 1014.06 1014.29 1014.39 1014.46 1014.64 1014.89 1015.25 1015.25 1015.39 1015.47 1015.38 1015.32 1015.06 1014.66 1014.52 1013.96 1013.06 1012.58 1011.80 1011.23 1009.90 1009.28 1008.27 1007.28 1006.35
1003.18 1004.21 1005.11 1005.73 1006.33 1006.86 1007.51 1008.10 1008.61 1009.10 1009.60 1010.36 1011.29 1012.17 1012.74 1013.31 1013.38 1013.66 1013.99 1014.02 1014.44 1014.66 1014.69 1014.86 1015.07 1015.02 1015.16 1015.28 1015.26 1015.19 1015.06 1014.87 1014.27 1013.69 1013.33 1012.58 1012.19 1011.17 1010.17 1008.96 1007.14 1006.35 1005.15
1002.33 1003.40 1004.25 1005.04 1005.56 1006.19 1006.83 1007.43 1008.05 1008.66 1009.38 1010.11 1010.95 1011.34 1011.87 1011.77 1012.18 1012.75 1013.08 1013.44 1013.89 1014.36 1014.56 1014.78 1014.85 1014.84 1014.91 1015.11 1015.09 1015.33 1015.18 1015.01 1014.16 1013.57 1013.28 1012.79 1012.14 1010.87 1009.97 1008.72 1007.32 1005.74 1004.20
1001.72 1002.69 1003.74 1004.59 1005.27 1005.89 1006.45 1007.08 1007.74 1008.35 1009.03 1009.72 1010.26 1010.78 1011.44 1011.84 1011.64 1012.54 1012.99 1013.67 1013.80 1014.23 1014.34 1014.59 1014.80 1014.81 1014.95 1015.05 1015.30 1015.02 1014.95 1014.86 1014.04 1013.63 1013.40 1013.24 1012.43 1011.65 1010.18 1008.64 1007.18 1005.52 1003.69
1001.52 1002.49 1003.44 1004.36 1005.09 1005.78 1006.33 1006.91 1007.52 1008.22 1008.88 1009.50 1010.12 1010.59 1011.26 1011.74 1012.38 1012.29 1012.86 1013.37 1013.52 1013.94 1014.12 1014.41 1014.57 1014.42 1014.63 1014.93 1015.09 1015.06 1014.80 1014.43 1013.70 1013.57 1013.42 1013.71 1012.92 1011.97 1010.57 1008.77 1007.06 1005.42 1003.82
1001.51 1002.38 1003.27 1004.24 1005.10 1005.85 1006.61 1007.25 1007.93 1008.55 1009.44 1010.30 1010.94 1011.41 1011.68 1012.58 1012.96 1013.28 1013.62 1013.77 1014.04 1013.95 1014.07 1014.10 1014.17 1014.41 1014.90 1015.09 1015.08 1014.88 1014.68 1014.26 1013.58 1013.34 1013.34 1013.39 1013.20 1012.18 1010.73 1009.19 1007.53 1005.61 1003.46
1001.63 1002.59 1003.58 1004.73 1005.65 1006.44 1007.26 1007.97 1008.63 1009.33 1010.00 1010.47 1010.07 1011.83 1012.66 1013.60 1013.68 1013.64 1014.00 1013.88 1013.86 1013.84 1013.81 1013.87 1014.10 1014.85 1015.28 1015.10 1015.06 1014.98 1014.66 1014.10 1013.32 1012.76 1012.60 1012.53 1012.20 1011.61 1010.48 1009.01 1007.25 1005.79 1004.24
1002.10 1003.02 1004.26 1005.12 1005.85 1006.68 1007.54 1008.18 1008.80 1009.45 1010.10 1011.10 1011.36 1010.90 1012.38 1013.82 1014.30 1014.58 1014.02 1014.17 1014.02 1013.66 1013.72 1014.44 1014.66 1015.24 1015.36 1015.39 1015.33 1015.08 1014.51 1013.98 1013.39 1012.55 1012.26 1011.83 1011.54 1011.13 1010.46 1009.65 1008.38 1006.89 1005.46
1002.77 1003.87 1004.88 1005.70 1006.39 1006.69 1007.16 1007.98 1008.26 1007.96 1009.48 1009.56 1010.48 1010.13 1010.96 1011.75 1012.77 1014.05 1013.90 1014.35 1014.52 1014.30 1014.21 1014.55 1015.18 1015.31 1015.40 1015.20 1015.22 1014.77 1014.32 1013.96 1013.16 1012.43 1011.82 1011.67 1011.18 1010.82 1010.23 1009.91 1008.93 1007.89 1006.64
1003.20 1004.50 1005.52 1006.02 1006.09 1007.33 1006.86 1007.20 1008.81 1009.59 1009.22 1010.12 1011.18 1011.19 1011.85 1012.44 1012.44 1013.38 1013.88 1014.63 1014.90 1014.78 1014.60 1014.40 1014.78 1015.08 1015.15 1014.93 1014.88 1014.37 1014.05 1013.68 1013.08 1012.53 1012.21 1012.02 1011.55 1010.83 1010.20 1010.08 1009.50 1008.45 1007.43
1003.80 1004.50 1005.25 1005.86 1006.90 1007.75 1008.73 1008.78 1009.06 1010.26 1010.26 1010.63 1011.47 1012.05 1012.20 1012.96 1013.70 1014.08 1013.89 1014.51 1014.68 1014.86 1014.59 1014.93 1014.62 1014.78 1014.84 1014.70 1014.51 1014.21 1014.13 1013.92 1013.44 1012.90 1012.58 1012.19 1011.75 1011.08 1010.16 1009.78 1009.59 1008.87 1008.04
1004.60 1005.18 1006.18 1006.13 1006.71 1007.72 1008.34 1008.80 1008.95 1009.49 1009.56 1010.40 1011.10 1011.98 1012.80 1013.06 1013.34 1014.10 1014.27 1014.20 1014.59 1014.76 1014.79 1014.41 1014.60 1014.44 1014.51 1014.62 1014.29 1014.28 1014.42 1014.20 1013.84 1013.46 1012.94 1012.40 1011.61 1011.00 1010.35 1009.72 1009.77 1009.40 1008.86
1005.25 1005.66 1006.38 1006.37 1006.94 1008.12 1008.96 1009.71 1009.88 1010.53 1010.48 1010.23 1010.44 1011.52 1012.81 1013.50 1013.92 1014.02 1013.87 1014.25 1014.56 1014.66 1014.74 1014.36 1014.23 1014.34 1014.55 1014.58 1014.40 1014.39 1014.49 1014.35 1014.15 1013.74 1013.27 1012.78 1012.15 1011.52 1010.97 1010.29 1009.71 1009.65 1009.76
1005.05 1005.51 1005.95 1006.48 1007.41 1008.09 1008.93 1010.14 1010.49 1010.92 1010.24 1010.91 1010.89 1011.28 1012.74 1013.14 1013.84 1013.81 1013.97 1014.11 1014.50 1014.79 1014.88 1014.59 1014.53 1014.67 1014.76 1014.76 1014.73 1014.73 1014.77 1014.82 1014.49 1014.20 1013.73 1013.25 1012.59 1012.01 1011.50 1010.96 1010.53 1010.30 1010.08
1004.91 1005.47 1006.28 1006.84 1007.64 1008.40 1009.42 1010.39 1010.79 1012.12 1011.78 1011.50 1011.82 1012.24 1012.43 1013.56 1013.64 1013.61 1014.22 1014.51 1014.57 1014.97 1014.86 1014.79 1014.94 1015.00 1015.06 1015.11 1015.14 1015.17 1015.14 1015.17 1014.97 1014.70 1014.36 1013.95 1013.43 1012.67 1012.12 1011.62 1011.22 1010.83 1010.69
1005.83 1006.07 1006.51 1007.02 1007.66 1008.24 1009.01 1009.84 1010.25 1010.91 1011.58 1012.55 1013.09 1013.23 1013.44 1013.71 1013.95 1014.11 1014.60 1014.75 1014.83 1014.90 1014.84 1015.15 1015.26 1015.35 1015.47 1015.51 1015.56 1015.58 1015.48 1015.55 1015.39 1015.10 1014.83 1014.34 1013.88 1013.39 1012.85 1012.32 1011.94 1011.60 1011.23
1006.12 1006.38 1006.62 1007.08 1007.57 1007.81 1008.45 1009.20 1009.69 1010.32 1011.30 1012.37 1013.48 1014.12 1014.36 1014.32 1014.47 1014.65 1014.92 1014.98 1014.39 1014.72 1014.98 1015.26 1015.49 1015.54 1015.81 1015.76 1015.78 1015.62 1015.45 1015.61 1015.50 1015.24 1014.86 1014.46 1013.99 1013.56 1013.17 1012.78 1012.60 1012.34 1011.84
1006.24 1006.23 1006.03 1006.36 1007.18 1007.47 1007.87 1008.63 1009.36 1010.22 1011.24 1012.24 1013.00 1013.60 1014.14 1014.44 1014.54 1014.55 1014.34 1014.32 1014.86 1015.13 1015.30 1015.39 1015.73 1015.83 1015.91 1016.01 1016.02 1015.70 1015.60 1015.79 1015.80 1015.54 1015.24 1014.78 1014.34 1013.74 1013.44 1013.22 1013.24 1013.01 1012.65
1005.80 1006.19 1006.34 1006.31 1006.53 1007.00 1007.53 1008.22 1009.02 1009.95 1010.54 1011.50 1012.19 1012.95 1013.56 1013.51 1013.59 1013.77 1014.06 1014.62 1014.98 1015.36 1015.70 1015.63 1015.72 1016.04 1016.09 1016.29 1016.37 1016.06 1015.97 1016.10 1016.16 1016.02 1015.62 1015.08 1014.75 1014.31 1013.81 1013.64 1013.64 1013.68 1013.26
1005.45 1005.74 1006.15 1006.03 1006.46 1006.91 1007.27 1008.06 1008.83 1009.28 1009.89 1010.68 1011.40 1012.70 1013.20 1013.62 1013.26 1013.66 1014.22 1014.86 1015.45 1015.70 1015.93 1016.02 1016.17 1016.42 1016.53 1016.64 1016.82 1016.92 1016.77 1016.83 1016.76 1016.53 1016.05 1015.53 1015.23 1014.82 1014.31 1014.16 1014.06 1014.02 1013.84
1004.95 1005.38 1005.69 1006.09 1006.38 1006.78 1007.31 1008.03 1008.90 1009.38 1009.90 1010.47 1011.38 1012.46 1012.98 1012.96 1013.37 1013.78 1014.38 1014.91 1015.41 1015.81 1016.12 1016.17 1016.42 1016.71 1016.76 1017.06 1017.39 1017.80 1017.93 1018.06 1017.77 1017.04 1016.86 1016.20 1015.70 1015.36 1014.81 1014.63 1014.61 1014.34 1014.22
1004.77 1005.02 1005.15 1005.88 1006.09 1006.67 1007.31 1008.25 1008.84 1009.37 1010.07 1010.54 1011.37 1012.26 1012.60 1013.11 1013.78 1014.10 1014.51 1015.04 1015.58 1016.02 1016.41 1016.80 1017.11 1017.41 1017.56 1017.78 1018.09 1018.40 1018.82 1018.93 1018.40 1018.00 1017.67 1016.82 1016.03 1015.63 1015.22 1015.04 1014.94 1014.88 1014.71
1004.82 1005.22 1005.70 1006.50 1006.75 1006.70 1007.48 1008.11 1008.62 1009.14 1009.86 1010.46 1011.21 1011.81 1012.70 1013.58 1014.04 1014.22 1014.55 1015.17 1015.78 1016.21 1016.54 1016.94 1017.40 1017.91 1018.45 1018.72 1018.95 1019.07 1019.38 1019.24 1018.86 1018.77 1017.93 1017.09 1016.51 1016.12 1015.66 1015.45 1015.20 1015.27 1015.12
1005.50 1005.79 1006.20 1006.70 1007.15 1007.44 1007.90 1008.50 1008.87 1009.42 1009.63 1010.39 1011.47 1012.23 1012.90 1013.42 1013.86 1014.10 1014.64 1015.22 1015.78 1016.24 1016.69 1017.16 1017.49 1018.01 1018.58 1019.10 1019.48 1019.59 1019.45 1019.25 1018.92 1018.58 1018.08 1016.79 1016.61 1016.60 1016.28 1015.87 1015.62 1015.49 1015.53
Thickness
5867 5861 5855 5850 5846 5839 5833 5832 5826 5822 5817 5812 5803 5793 5780 5774 5766 5757 5757 5744 5737 5730 5722 5716 5706 5697 5689 5682 5676 5670 5661 5654 5648 5649 5648 5648 5646 5644 5645 5643 5643 5643 5647
5873 5865 5859 5853 5848 5842 5836 5831 5827 5820 5818 5812 5800 5789 5779 5773 5765 5756 5749 5743 5736 5726 5715 5707 5698 5692 5681 5674 5667 5658 5652 5647 5638 5634 5635 5637 5634 5631 5632 5628 5631 5634 5639
5876 5867 5860 5854 5848 5843 5838 5833 5827 5821 5815 5808 5797 5785 5777 5766 5758 5757 5743 5735 5729 5719 5711 5701 5690 5684 5674 5666 5659 5650 5643 5638 5629 5624 5625 5623 5622 5618 5624 5621 5624 5629 5634
5881 5871 5861 5855 5850 5846 5841 5835 5829 5822 5814 5804 5794 5782 5769 5759 5754 5745 5732 5728 5718 5708 5701 5693 5684 5677 5668 5658 5649 5640 5633 5627 5624 5620 5614 5612 5606 5606 5606 5610 5626 5625 5635
5881 5872 5865 5859 5854 5848 5841 5834 5828 5820 5810 5801 5789 5783 5773 5770 5757 5746 5736 5725 5715 5702 5694 5685 5679 5671 5662 5651 5643 5631 5624 5616 5617 5612 5605 5601 5596 5599 5598 5606 5613 5625 5636
5879 5871 5865 5858 5851 5844 5838 5831 5823 5816 5806 5797 5788 5781 5768 5760 5755 5739 5728 5714 5706 5694 5687 5678 5671 5663 5654 5645 5633 5626 5618 5609 5608 5602 5595 5586 5585 5583 5592 5600 5609 5622 5637
5874 5868 5861 5854 5846 5839 5833 5826 5818 5807 5800 5789 5780 5770 5759 5750 5734 5727 5720 5710 5699 5689 5681 5673 5666 5661 5651 5640 5629 5619 5614 5607 5606 5596 5588 5574 5575 5577 5585 5597 5608 5620 5630
5868 5862 5856 5848 5839 5832 5823 5815 5806 5798 5785 5773 5762 5753 5745 5731 5720 5710 5703 5696 5686 5681 5676 5670 5663 5654 5642 5632 5624 5617 5611 5605 5603 5597 5585 5574 5570 5572 5581 5590 5602 5616 5631
5859 5852 5846 5836 5825 5818 5808 5799 5792 5781 5771 5762 5761 5740 5727 5713 5705 5698 5691 5686 5679 5675 5672 5666 5657 5643 5631 5626 5620 5613 5607 5603 5602 5596 5588 5580 5577 5575 5583 5593 5605 5616 5624
5848 5842 5833 5825 5817 5806 5798 5790 5782 5773 5763 5749 5741 5740 5722 5702 5687 5673 5676 5672 5669 5670 5664 5653 5645 5633 5625 5618 5612 5609 5606 5602 5601 5600 5593 5587 5581 5579 5582 5587 5596 5605 5615
5838 5830 5820 5812 5803 5798 5792 5784 5778 5776 5755 5753 5739 5737 5725 5710 5689 5675 5671 5665 5658 5656 5651 5646 5634 5625 5619 5614 5607 5608 5604 5601 5602 5601 5596 5587 5583 5582 5584 5584 5591 5597 5606
5828 5815 5805 5799 5793 5781 5785 5779 5761 5751 5752 5739 5724 5720 5708 5698 5693 5678 5667 5655 5647 5644 5642 5640 5631 5622 5616 5612 5606 5607 5603 5601 5602 5599 5594 5587 5581 5583 5585 5583 5586 5593 5598
5813 5807 5799 5791 5780 5770 5759 5757 5752 5738 5734 5722 5708 5701 5697 5685 5675 5665 5662 5650 5643 5637 5636 5627 5626 5620 5613 5610 5608 5605 5603 5600 5598 5595 5590 5586 5582 5580 5586 5587 5586 5589 5595
5797 5791 5782 5780 5771 5763 5755 5751 5745 5736 5730 5717 5704 5689 5681 5675 5666 5659 5653 5647 5636 5631 5627 5626 5621 5618 5613 5608 5608 5604 5599 5597 5594 5590 5588 5587 5586 5584 5587 5588 5586 5587 5590
5783 5778 5770 5770 5763 5748 5738 5730 5727 5713 5709 5708 5699 5687 5674 5664 5656 5648 5649 5640 5632 5626 5619 5621 5618 5614 5608 5604 5604 5600 5596 5594 5590 5587 5587 5585 5586 5586 5586 5585 5586 5585 5582
5774 5769 5766 5761 5750 5740 5729 5715 5701 5695 5693 5680 5687 5685 5668 5660 5648 5645 5639 5633 5625 5617 5614 5613 5609 5605 5600 5598 5597 5594 5591 5587 5586 5584 5584 5584 5585 5586 5585 5585 5583 5580 5581
5767 5762 5752 5746 5736 5726 5714 5702 5690 5678 5676 5676 5670 5665 5662 5646 5643 5640 5630 5622 5618 5609 5610 5606 5601 5597 5595 5593 5591 5587 5585 5582 5581 5580 5580 5579 5580 5584 5584 5583 5582 5582 5578
5748 5742 5738 5732 5725 5717 5710 5697 5692 5684 5676 5665 5654 5649 5640 5636 5632 5627 5618 5612 5610 5604 5603 5597 5593 5591 5588 5586 5583 5581 5579 5576 5576 5576 5575 5576 5577 5578 5580 5582 5582 5581 5581
5735 5731 5727 5722 5716 5712 5706 5693 5688 5681 5668 5656 5644 5634 5626 5623 5618 5614 5606 5604 5608 5602 5598 5592 5588 5585 5581 5581 5578 5578 5577 5573 5572 5573 5575 5575 5576 5577 5577 5580 5579 5577 5580
5723 5720 5722 5719 5709 5706 5701 5689 5679 5668 5659 5646 5637 5629 5622 5616 5613 5610 5607 5605 5598 5593 5588 5586 5583 5580 5577 5575 5573 5574 5572 5569 5567 5568 5569 5571 5573 5575 5576 5575 5572 5573 5574
5718 5712 5707 5710 5707 5701 5694 5683 5672 5661 5654 5643 5635 5625 5618 5617 5614 5610 5604 5597 5591 5585 5581 5581 5580 5576 5574 5570 5568 5569 5568 5565 5562 5561 5563 5566 5567 5569 5571 5570 5569 5565 5567
5711 5710 5705 5703 5698 5693 5687 5677 5667 5660 5653 5645 5635 5621 5610 5608 5610 5605 5598 5590 5583 5580 5576 5575 5572 5569 5567 5564 5561 5559 5558 5556 5554 5554 5557 5559 5560 5561 5563 5563 5563 5561 5561
5708 5701 5698 5692 5687 5682 5677 5665 5656 5648 5644 5639 5627 5616 5610 5609 5603 5598 5591 5585 5580 5576 5572 5569 5567 5563 5560 5557 5552 5547 5545 5542 5542 5545 5546 5550 5552 5553 5556 5556 5555 5556 5555
5701 5697 5693 5683 5682 5674 5667 5656 5649 5640 5633 5629 5620 5611 5607 5600 5593 5589 5585 5580 5575 5570 5565 5561 5558 5554 5551 5547 5542 5538 5534 5533 5534 5534 5536 5541 5546 5547 5549 5549 5548 5548 5548
5690 5685 5678 5667 5663 5665 5656 5649 5642 5636 5628 5623 5617 5610 5600 5591 5587 5584 5581 5576 5570 5565 5561 5556 5551 5546 5540 5535 5532 5529 5528 5528 5527 5527 5530 5534 5538 5539 5542 5542 5543 5541 5542
5674 5670 5665 5658 5654 5649 5643 5636 5633 5626 5624 5619 5608 5600 5594 5589 5585 5582 5576 5571 5565 5560 5555 5550 5545 5539 5533 5527 5524 5523 5523 5523 5523 5525 5526 5531 5533 5532 5533 5536 5537 5537 5535